Location: *
(53.9002°N, 27.5624°E)
Time: 16:47:16
(UTC+00:00)

Tsikada Rocket - Pass Details

Date: 12 November 2019
Orbit: 958 x 1009 km, 82.9° (Epoch: 14 December)

Event Time Altitude Azimuth Distance (km) Brightness Sun altitude
Rises 17:39:04 0° 193° (SSW) 3,700 7.1 -29.7°
Reaches altitude 10° 17:41:34 10° 194° (SSW) 2,761 6.4 -30.0°
Maximum altitude 17:47:57 80° 282° (WNW) 1,028 4.0 -30.9°
Drops below altitude 10° 17:54:25 10° 9° (N) 2,800 6.4 -31.9°
Sets 17:56:58 0° 11° (N) 3,756 7.1 -32.2°
